Torna al catalogo

EUTE 3B

AttivoComunicazioniGEO
NORAD 39773·PAYLOAD·🇪🇺 EU

Lanciato May 26, 2014 da Sea Launch Platform

Loading…

TLE

AggiornatoSource: Space-Track

Epoca: Sep 14, 2026, 06:58 UTC

1 39773U 14030A   26257.29059104  .00000012  00000-0  00000-0 0  9992
2 39773   0.0664   3.7909 0004106 166.3367 290.8558  1.00273302 44966

Traccia EUTE 3B in tempo reale con AllMySat

Download on the App Store